Miscellaneous Local Product
Issued by NWS Hastings, NE

Home | Current Version | Previous Version | Graphics & Text | Print | Product List | Glossary On
Versions: 1 2 3 4 5 6 7 8 9 10 11 12 13 14 15 16 17 18 19 20 21 22 23 24 25 26 27 28 29 30 31 32 33 34 35 36 37 38 39 40 41 42 43 44 45 46 47 48 49 50
000
AXUS43 KGID 290402
MISGRI

GID CWA HOURLY WEATHER ROUNDUP
NATIONAL WEATHER SERVICE HASTINGS NE
1100 PM CDT FRI AUG 28 2015

NOTE: "FAIR" INDICATES FEW OR NO CLOUDS BELOW 12,000 FEET WITH NO
SIGNIFICANT WEATHER AND/OR OBSTRUCTIONS TO VISIBILITY.

...SOUTH CENTRAL NEBRASKA...

CITY           SKY/WX    TMP DP  RH WIND       PRES   REMARKS
GRAND ISLAND   CLEAR     62  59  90 N5        30.04R
HASTINGS       CLEAR     62  59  90 NW3       30.04R
KEARNEY        CLEAR     64  57  77 N5        30.05S
ORD            CLEAR     61  59  93 N5        30.04R
YORK           PTCLDY    64  63  94 N8        30.02R
AURORA         PTCLDY    63  63 100 N3        30.02S
LEXINGTON      CLEAR     62  60  91 CALM      30.08R
HOLDREGE       CLEAR     61  59  92 CALM      30.07R
HEBRON         CLEAR     65  62  87 NW3       30.00S

...NEBRASKA PANHANDLE...

CITY           SKY/WX    TMP DP  RH WIND       PRES   REMARKS
CHADRON        CLEAR     65  51  60 W6        30.09R
ALLIANCE       CLEAR     61  49  64 SW3       30.15R
SCOTTSBLUFF    CLEAR     64  55  72 E3        30.16R
SIDNEY         CLEAR     56  41  57 CALM      30.20R

...WESTERN AND NORTH CENTRAL NEBRASKA...

CITY           SKY/WX    TMP DP  RH WIND       PRES   REMARKS
VALENTINE      CLEAR     62  59  90 CALM      30.07R
AINSWORTH      CLEAR     62  61  97 CALM      30.08S
ONEILL         CLEAR     63  63  99 CALM      30.06R FOG
BROKEN BOW     CLEAR     62  59  90 N3        30.07R
IMPERIAL       CLEAR     67  59  75 CALM      30.12R
NORTH PLATTE   CLEAR     61  58  90 E5        30.09R
MCCOOK         CLEAR     65  60  84 MISG      30.09R

...EASTERN NEBRASKA...

CITY           SKY/WX    TMP DP  RH WIND       PRES   REMARKS
NORFOLK        MOCLDY    62  59  90 N7        30.02S
SO SIOUX CITY  CLOUDY    63  58  83 N5        30.00R
TEKAMAH        CLOUDY    63  61  93 N14       29.98R
COLUMBUS       CLOUDY   N/A N/A N/A N12       30.01S
ALBION         CLEAR     64  60  89 NE6       30.05R
OMAHA EPPLEY   CLOUDY    64  62  93 N12       29.95R
OFFUTT AFB     CLOUDY    64  63  94 NW8G18    29.95R FOG
MILLARD        CLOUDY    65  62  90 N7        29.96S
LINCOLN        CLOUDY    66  60  81 N12       29.99R
NEBRASKA CITY  CLOUDY    66  65  94 NW8       29.96R
BEATRICE       CLOUDY    66  61  83 N12       29.97F
FALLS CITY     CLEAR     67  65  93 NW7       29.93S

...NORTHERN KANSAS...

CITY           SKY/WX    TMP DP  RH WIND       PRES   REMARKS
GOODLAND       CLEAR     67  53  61 SE6       30.14R
HILL CITY      CLEAR     67  61  81 NE7       30.07R
NORTON         CLEAR     61  54  77 CALM      30.08R
PHILLIPSBURG   CLEAR     70  61  73 CALM      30.06R
SMITH CENTER   CLEAR     64  61  88 CALM      30.05R
HAYS           CLEAR     72  57  60 NE9       30.05R
RUSSELL        CLEAR     68  62  81 NE7       30.02R
CONCORDIA      CLEAR     67  63  87 NW6       29.99S
SALINA         CLEAR     73  65  75 N8        29.99R
TOPEKA         CLOUDY    72  70  93 CALM      29.93S



USA.gov is the U.S. government's official web portal to all federal, state and local government web resources and services.